{"data":{"norad_id":58224,"epoch":"2026-09-20T03:52:12.481248Z","epoch_age_seconds":172917,"freshness":"STALE","line1":"1 58224U 23170U   26263.16125557  .00000064  00000+0  11841-4 0  9993","line2":"2 58224  43.0020 175.7441 0001419 267.2421  92.8269 15.27579664160049","mean_motion":15.27579664,"eccentricity":0.0001419,"inclination_deg":43.002,"raan_deg":175.7441,"arg_perigee_deg":267.2421,"mean_anomaly_deg":92.8269,"bstar":1.1841e-5,"rev_number":16004,"period_min":94.266769448169,"perigee_km":482.07649969492,"apogee_km":484.02370459451,"semimajor_km":6861.1871021447,"source":"CELESTRAK","updated_at":"2026-09-21T09:00:33.834832Z"}}